This is the latest recevied weather packets stored in our database for station/object EA1IDU-12. If no packets are shown the sender has not sent any weather packets the latest 1 day(s).
| Time | Temp. | Humidity | Pressure | Rain* | Wind** | Luminosity | Snow |
|---|---|---|---|---|---|---|---|
| 1788633611 | 26.67° C | 25% | 1031.6 hPa | - | - | - | - |
| 1788632711 | 27.22° C | 24% | 1031.5 hPa | - | - | - | - |
| 1788631811 | 27.78° C | 23% | 1031 hPa | - | - | - | - |
| 1788630911 | 28.89° C | 23% | 1031 hPa | - | - | - | - |
| 1788630010 | 29.44° C | 21% | 1031.3 hPa | - | - | - | - |
| 1788629110 | 30.56° C | 20% | 1031.2 hPa | - | - | - | - |
| 1788628210 | 31.67° C | 18% | 1031.1 hPa | - | - | - | - |
| 1788627310 | 32.78° C | 17% | 1031 hPa | - | - | - | - |
| 1788626410 | 32.78° C | 17% | 1030.8 hPa | - | - | - | - |
| 1788625510 | 32.78° C | 17% | 1030.7 hPa | - | - | - | - |
| 1788624609 | 35° C | 15% | 1030.6 hPa | - | - | - | - |
| 1788623709 | 35.56° C | 15% | 1030.5 hPa | - | - | - | - |
| 1788622809 | 36.11° C | 15% | 1030.3 hPa | - | - | - | - |
| 1788621909 | 34.44° C | 16% | 1030.3 hPa | - | - | - | - |
| 1788621009 | 34.44° C | 16% | 1030.4 hPa | - | - | - | - |
| 1788620109 | 34.44° C | 17% | 1030.4 hPa | - | - | - | - |
| 1788619208 | 35° C | 17% | 1030.3 hPa | - | - | - | - |
| 1788618308 | 35.56° C | 17% | 1030.3 hPa | - | - | - | - |
| 1788617408 | 37.22° C | 16% | 1030.2 hPa | - | - | - | - |
| 1788616508 | 37.78° C | 16% | 1030.5 hPa | - | - | - | - |
| 1788615608 | 37.22° C | 17% | 1030.5 hPa | - | - | - | - |
| 1788614708 | 37.78° C | 18% | 1030.5 hPa | - | - | - | - |
| 1788613807 | 37.22° C | 18% | 1030.8 hPa | - | - | - | - |
| 1788612907 | 36.11° C | 20% | 1030.8 hPa | - | - | - | - |
| 1788612007 | 35° C | 20% | 1031.1 hPa | - | - | - | - |
* Rain since midnight (hover to see other rain measurements)
** Current wind speed in m/s (hover to see current wind gust speed)